This is the latest recevied weather packets stored in our database for station/object K7YVO. If no packets are shown the sender has not sent any weather packets the latest 10 day(s).
| Time | Temp. | Humidity | Pressure | Rain* | Wind** | Luminosity | Snow |
|---|---|---|---|---|---|---|---|
| 1778031949 | 15.56° C | 78% | 1017.5 hPa | 0 mm | - | 56 W/m² | - |
| 1778031644 | 15.56° C | 77% | 1017.5 hPa | 0 mm | - | 62 W/m² | - |
| 1778031343 | 15.56° C | 77% | 1017.4 hPa | 0 mm | - | 70 W/m² | - |
| 1778031039 | 15.56° C | 76% | 1017.5 hPa | 0 mm | - | 77 W/m² | - |
| 1778030735 | 16.11° C | 76% | 1017.5 hPa | 0 mm | - | 82 W/m² | - |
| 1778030432 | 15.56° C | 78% | 1017.6 hPa | 0 mm | - | 80 W/m² | - |
| 1778030130 | 15.56° C | 78% | 1017.4 hPa | 0 mm | - | 81 W/m² | - |
| 1778029826 | 15.56° C | 77% | 1017.5 hPa | 0 mm | - | 79 W/m² | - |
| 1778029525 | 16.11° C | 77% | 1017.6 hPa | 0 mm | - | 76 W/m² | - |
| 1778029221 | 15.56° C | 76% | 1017.5 hPa | 0 mm | - | 74 W/m² | - |
| 1778028919 | 15.56° C | 76% | 1017.5 hPa | 0 mm | - | 72 W/m² | - |
| 1778028614 | 15.56° C | 77% | 1017.4 hPa | 0 mm | - | 70 W/m² | - |
| 1778028312 | 15.56° C | 77% | 1017.7 hPa | 0 mm | - | 64 W/m² | - |
| 1778028008 | 15.56° C | 78% | 1017.5 hPa | 0 mm | - | 66 W/m² | - |
| 1778027705 | 15.56° C | 77% | 1017.5 hPa | 0 mm | - | 67 W/m² | - |
| 1778027400 | 16.11° C | 77% | 1017.6 hPa | 0 mm | - | 72 W/m² | - |
| 1778027097 | 15.56° C | 77% | 1017.5 hPa | 0 mm | - | 83 W/m² | - |
| 1778026792 | 15.56° C | 77% | 1017.5 hPa | 0 mm | - | 88 W/m² | - |
| 1778026489 | 16.11° C | 76% | 1017.6 hPa | 0 mm | - | 81 W/m² | - |
| 1778026187 | 16.11° C | 75% | 1017.6 hPa | 0 mm | - | 89 W/m² | - |
| 1778025884 | 16.11° C | 75% | 1017.7 hPa | 0 mm | - | 101 W/m² | - |
| 1778025581 | 16.11° C | 74% | 1017.7 hPa | 0 mm | - | 106 W/m² | - |
| 1778025279 | 16.11° C | 74% | 1017.7 hPa | 0 mm | - | 111 W/m² | - |
| 1778024976 | 16.11° C | 74% | 1018 hPa | 0 mm | - | 121 W/m² | - |
| 1778024673 | 15.56° C | 75% | 1017.8 hPa | 0 mm | - | 126 W/m² | - |
* Rain latest hour (hover to see other rain measurements)
** Current wind speed in m/s (hover to see current wind gust speed)